GW0953 Weather Reports


time (UTC)temp
F
wind
direction
speed
knots
gust
knots
rain 1hr
in
rain 24hr
in
rain mn
in
humidity
%
barometer
mb
20260509201052 63 8 0.9 0.9 0.00 0.07 0.07 66 1015.6
20260509200550 63 356 0.0 0.9 0.00 0.07 0.07 69 1015.7
20260509200047 63 340 0.9 0.9 0.00 0.07 0.07 69 1015.5
20260509195543 63 301 0.9 0.9 0.00 0.07 0.07 69 1015.7
20260509195038 63 358 0.0 0.0 0.00 0.07 0.07 72 1015.6
20260509194533 63 26 0.9 1.7 0.00 0.07 0.07 73 1015.9
20260509194031 63 302 0.0 0.9 0.00 0.07 0.07 72 1015.9
20260509193531 62 51 0.9 0.9 0.00 0.07 0.07 74 1015.8
20260509193028 62 339 0.0 0.0 0.00 0.07 0.07 76 1015.8
20260509192524 62 42 2.6 2.6 0.00 0.07 0.07 75 1015.7
20260509192019 61 45 0.9 0.9 0.00 0.07 0.07 80 1016.3
20260509191514 61 345 0.0 0.0 0.00 0.07 0.07 77 1016.2
20260509191010 61 334 0.0 0.0 0.00 0.07 0.07 76 1015.9
20260509190507 61 306 0.0 0.9 0.00 0.07 0.07 77 1016.0
20260509190006 61 345 0.9 0.9 0.00 0.07 0.07 77 1016.4
20260509185502 61 317 0.0 0.9 0.00 0.07 0.07 79 1016.0
20260509184958 60 359 0.0 0.0 0.00 0.07 0.07 80 1016.0
20260509184457 60 359 0.0 0.0 0.00 0.07 0.07 80 1016.0
20260509183952 60 335 0.0 0.0 0.00 0.07 0.07 81 1016.0
20260509183447 61 11 0.9 0.9 0.00 0.07 0.07 79 1016.0
20260509182944 61 308 0.0 0.9 0.00 0.07 0.07 78 1016.3
20260509182440 60 58 0.9 0.9 0.00 0.07 0.07 81 1016.0
20260509181937 60 324 0.0 0.9 0.00 0.07 0.07 80 1016.0
20260509181436 60 15 0.9 0.9 0.00 0.07 0.07 79 1016.0
20260509180933 60 355 0.9 0.9 0.00 0.07 0.07 81 1016.3
20260509180428 59 355 0.0 0.9 0.00 0.07 0.07 83 1016.4
20260509175925 59 347 0.0 0.0 0.00 0.07 0.07 83 1016.2
20260509175421 58 5 0.9 0.9 0.00 0.07 0.07 84 1016.5
20260509174918 58 68 0.0 0.9 0.00 0.07 0.07 84 1016.2
20260509174414 57 339 0.0 0.0 0.00 0.07 0.07 85 1016.5
20260509173910 58 338 0.0 0.9 0.00 0.07 0.07 86 1016.6
20260509173409 57 349 0.0 0.0 0.00 0.07 0.07 87 1016.7
20260509172906 57 9 0.0 0.9 0.00 0.07 0.07 88 1016.5
20260509172403 57 334 0.0 0.9 0.00 0.07 0.07 89 1016.5
20260509171859 57 10 0.9 0.9 0.00 0.07 0.07 87 1016.4
20260509171355 57 10 0.0 0.0 0.00 0.07 0.07 89 1016.7
20260509170851 57 325 0.0 0.0 0.00 0.07 0.07 88 1016.7
20260509170347 57 350 0.0 0.0 0.00 0.07 0.07 86 1016.9
20260509165842 57 349 0.0 0.0 0.00 0.07 0.07 87 1016.7
20260509165336 57 339 0.0 0.0 0.00 0.07 0.07 87 1016.9
20260509164833 57 326 0.9 0.9 0.00 0.07 0.07 86 1017.2
20260509164329 57 343 0.0 0.0 0.00 0.07 0.07 87 1017.2
20260509163826 58 341 0.0 0.0 0.00 0.07 0.07 89 1017.2
20260509163322 57 347 0.0 0.0 0.00 0.07 0.07 88 1017.1
20260509162821 57 351 0.0 0.0 0.00 0.07 0.07 88 1016.9
20260509162314 57 337 0.0 0.0 0.00 0.07 0.07 91 1017.3
20260509161811 56 346 0.0 0.9 0.00 0.07 0.07 92 1017.2
20260509161307 55 359 0.0 0.9 0.00 0.07 0.07 92 1017.0
20260509160803 55 310 0.0 0.0 0.00 0.07 0.07 93 1017.5
20260509160259 55 342 0.0 0.0 0.00 0.07 0.07 94 1017.4
20260509155754 55 334 0.0 0.0 0.00 0.07 0.07 94 1017.3
20260509155251 54 336 0.0 0.0 0.00 0.07 0.07 94 1017.3
20260509154747 55 339 0.0 0.0 0.00 0.07 0.07 96 1017.5
20260509154245 54 341 0.0 0.0 0.00 0.07 0.07 95 1017.5
20260509153741 54 336 0.0 0.0 0.00 0.07 0.07 94 1017.5
20260509153237 54 334 0.0 0.0 0.00 0.07 0.07 94 1017.5
20260509152734 54 306 0.9 0.9 0.00 0.07 0.07 94 1017.6
20260509152231 54 318 0.0 0.9 0.00 0.07 0.07 94 1017.6
20260509151727 54 331 0.9 0.9 0.00 0.07 0.07 94 1017.4
20260509151224 55 336 0.0 0.0 0.00 0.07 0.07 94 1017.6
20260509150722 54 334 0.0 0.0 0.00 0.07 0.07 94 1017.6
20260509150220 54 342 0.0 0.0 0.00 0.07 0.07 94 1017.6
20260509145717 54 326 0.0 0.0 0.00 0.07 0.07 94 1017.5
20260509145212 54 343 0.0 0.0 0.00 0.07 0.07 96 1017.6
20260509144708 54 340 0.0 0.0 0.00 0.07 0.07 96 1017.3
20260509144205 53 332 0.0 0.0 0.00 0.07 0.07 96 1017.3
20260509143703 53 332 0.0 0.0 0.00 0.07 0.07 98 1017.6
20260509143200 53 343 0.0 0.0 0.07 0.07 0.07 98 1017.5
20260509142655 53 340 0.0 0.0 0.07 0.07 0.07 98 1017.6
20260509142152 53 340 0.0 0.0 0.00 0.06 0.06 99 1017.6
20260509141648 53 347 0.0 0.0 0.00 0.06 0.06 99 1017.7
20260509141144 53 330 0.0 0.0 0.05 0.06 0.06 99 1017.8
20260509140641 53 339 0.0 0.0 0.05 0.06 0.06 99 1017.7
20260509140139 53 340 0.0 0.0 0.00 0.05 0.05 99 1017.8
20260509135636 53 344 0.0 0.0 0.00 0.05 0.05 99 1017.6
20260509135134 53 345 0.0 0.0 0.07 0.05 0.05 99 1017.9
20260509134631 53 349 0.0 0.0 0.07 0.05 0.05 99 1017.9
20260509134128 53 343 0.0 0.0 0.07 0.04 0.04 99 1017.7
20260509133625 53 349 0.0 0.0 0.07 0.04 0.04 98 1017.9
20260509133122 52 340 0.0 0.0 0.00 0.03 0.03 98 1017.9
20260509132621 52 327 0.0 0.0 0.00 0.03 0.03 98 1018.0
20260509132119 52 333 0.0 0.0 0.05 0.03 0.03 98 1017.9
20260509131614 52 333 0.0 0.0 0.05 0.03 0.03 97 1017.8
20260509131112 52 332 1.7 1.7 0.00 0.02 0.02 97 1017.8
20260509130607 52 338 0.0 0.0 0.07 0.02 0.02 96 1017.9
20260509130104 52 338 0.0 0.0 0.07 0.02 0.02 95 1017.6
20260509125600 53 340 0.0 0.0 0.00 0.01 0.01 94 1017.8
20260509125057 53 334 0.0 0.0 0.05 0.01 0.01 93 1017.7
20260509124554 53 336 0.0 0.0 0.05 0.01 0.01 91 1017.9
20260509124051 54 329 0.0 0.0 0.00 0.00 0.00 88 1017.7
20260509123549 54 334 0.0 0.0 0.00 0.00 0.00 86 1017.6
20260509123045 54 335 0.0 0.0 0.00 0.00 0.00 85 1017.8
20260509122541 54 331 0.9 0.9 0.00 0.00 0.00 84 1018.0
20260509122039 54 336 0.0 0.0 0.00 0.00 0.00 83 1017.8
20260509121535 55 341 0.0 0.0 0.00 0.00 0.00 83 1017.9
20260509121033 55 318 0.9 0.9 0.00 0.00 0.00 80 1018.0
20260509120531 55 317 0.9 0.9 0.00 0.00 0.00 76 1017.8
20260509120029 55 354 0.0 0.9 0.00 0.00 0.00 76 1017.6
20260509115525 55 326 0.9 1.7 0.00 0.00 0.00 76 1017.5
20260509115023 55 354 0.9 0.9 0.00 0.00 0.00 76 1017.4
20260509114521 56 8 0.9 0.9 0.00 0.00 0.00 75 1017.5
20260509114020 56 357 0.0 0.0 0.00 0.00 0.00 75 1017.5
20260509113518 56 342 0.0 0.0 0.00 0.00 0.00 74 1017.5
20260509113015 56 333 0.0 0.0 0.00 0.00 0.00 74 1017.3
20260509112511 56 308 0.9 0.9 0.00 0.00 0.00 74 1017.3
20260509112008 56 186 1.7 1.7 0.00 0.00 0.00 73 1017.2
20260509111506 56 204 2.6 2.6 0.00 0.00 0.00 74 1017.0
20260509111003 56 333 0.0 0.9 0.00 0.00 0.00 74 1017.0
20260509110459 56 325 0.9 1.7 0.00 0.00 0.00 73 1017.0
20260509105956 56 160 2.6 2.6 0.00 0.00 0.00 73 1017.1
20260509105455 56 33 0.9 0.9 0.00 0.00 0.00 73 1017.0
20260509104952 56 60 0.9 1.7 0.00 0.00 0.00 73 1017.2
20260509104449 57 357 0.9 0.9 0.00 0.00 0.00 72 1017.0
20260509103946 57 307 1.7 1.7 0.00 0.00 0.00 71 1017.3
20260509103443 57 341 3.5 5.2 0.00 0.00 0.00 71 1017.2
20260509102941 57 310 0.9 0.9 0.00 0.00 0.00 71 1017.3
20260509102438 57 292 2.6 2.6 0.00 0.00 0.00 70 1017.4
20260509101934 57 325 1.7 1.7 0.00 0.00 0.00 70 1017.3
20260509101431 57 139 1.7 1.7 0.00 0.00 0.00 69 1017.3
20260509100928 56 324 1.7 1.7 0.00 0.00 0.00 72 1017.0
20260509100425 57 8 0.9 1.7 0.00 0.00 0.00 75 1017.1
20260509095922 54 345 3.5 4.3 0.00 0.00 0.00 74 1016.9
20260509095419 53 343 0.9 0.9 0.00 0.00 0.00 77 1017.0
20260509094916 51 327 0.9 0.9 0.00 0.00 0.00 86 1017.1
20260509094413 51 292 2.6 2.6 0.00 0.00 0.00 88 1017.2
20260509093911 51 320 0.0 0.0 0.00 0.00 0.00 88 1017.0
20260509093408 51 344 0.0 0.0 0.00 0.00 0.00 88 1016.9
20260509092906 51 343 0.0 0.0 0.00 0.00 0.00 87 1017.0
20260509092403 51 340 0.0 0.0 0.00 0.00 0.00 87 1017.1
20260509091902 51 334 0.9 1.7 0.00 0.00 0.00 87 1016.9
20260509091358 51 345 0.0 0.9 0.00 0.00 0.00 88 1016.9
20260509090855 51 347 0.0 0.9 0.00 0.00 0.00 88 1017.1
20260509090352 51 346 0.0 0.0 0.00 0.00 0.00 88 1016.9
20260509085850 51 342 0.0 0.0 0.00 0.00 0.00 85 1016.9
20260509085347 51 338 0.0 0.0 0.00 0.00 0.00 84 1016.9
20260509084843 51 323 0.0 0.0 0.00 0.00 0.00 86 1017.1
20260509084340 51 344 0.0 0.0 0.00 0.00 0.00 85 1016.9
20260509083838 51 335 0.0 0.0 0.00 0.00 0.00 85 1017.4
20260509083334 51 336 0.0 0.0 0.00 0.00 0.00 85 1017.0
20260509082831 51 344 0.0 0.0 0.00 0.00 0.00 86 1017.2
20260509082328 51 345 0.0 0.0 0.00 0.00 0.00 85 1017.2
20260509081826 50 338 0.0 0.0 0.00 0.00 0.00 85 1017.1
20260509081322 51 340 0.0 0.0 0.00 0.00 0.00 86 1016.9
20260509080820 51 340 0.0 0.0 0.00 0.00 0.00 85 1017.1
20260509080318 50 331 0.0 0.0 0.00 0.00 0.00 84 1017.0
20260509075816 51 331 0.0 0.0 0.00 0.00 0.00 84 1017.1
20260509075313 51 330 0.0 0.0 0.00 0.00 0.00 84 1017.0
20260509074810 51 325 0.0 0.0 0.00 0.00 0.00 83 1017.2
20260509074308 51 331 0.0 0.0 0.00 0.00 0.00 82 1017.1
20260509073803 51 331 0.0 0.0 0.00 0.00 0.00 83 1017.2
20260509073300 51 331 0.0 0.0 0.00 0.00 0.00 83 1017.2
20260509072757 51 331 0.0 0.0 0.00 0.00 0.00 85 1017.2
20260509072253 50 331 0.0 0.0 0.00 0.00 0.00 85 1017.1
20260509071750 51 331 0.0 0.0 0.00 0.00 0.00 84 1017.3
20260509071247 51 331 0.0 0.0 0.00 0.00 0.00 83 1017.3
20260509070744 51 331 0.0 0.0 0.00 0.00 0.00 82 1017.1
20260509070241 51 326 0.0 0.0 0.00 0.00 0.00 82 1017.2
20260509065737 51 332 0.0 0.0 0.00 0.00 0.00 82 1017.0
20260509065233 51 331 0.0 0.0 0.00 0.00 0.00 82 1016.9
20260509064730 51 331 0.0 0.0 0.00 0.00 0.00 82 1017.2
20260509064227 51 332 0.0 0.0 0.00 0.00 0.00 82 1017.2
20260509063725 51 331 0.0 0.0 0.00 0.00 0.00 83 1017.3
20260509063221 51 330 0.0 0.0 0.00 0.00 0.00 83 1017.3
20260509062718 52 326 0.0 0.0 0.00 0.00 0.00 83 1017.2
20260509062215 52 338 0.0 0.0 0.00 0.00 0.00 83 1017.2
20260509061712 52 342 0.0 0.0 0.00 0.00 0.00 81 1017.3
20260509061210 52 342 0.0 0.0 0.00 0.00 0.00 80 1017.3
20260509060707 52 342 0.0 0.0 0.00 0.00 0.00 81 1017.3
20260509060203 52 342 0.0 0.0 0.00 0.00 0.00 81 1017.6
20260509055659 52 341 0.0 0.0 0.00 0.00 0.00 81 1017.4
20260509055155 52 342 0.0 0.0 0.00 0.00 0.00 80 1017.6
20260509054652 52 341 0.0 0.0 0.00 0.00 0.00 80 1017.5
20260509054149 53 314 0.0 0.0 0.00 0.00 0.00 79 1017.4
20260509053648 53 336 0.0 0.0 0.00 0.00 0.00 77 1017.6
20260509053144 53 336 0.0 0.0 0.00 0.00 0.00 78 1017.8
20260509052642 53 336 0.0 0.0 0.00 0.00 0.00 78 1017.7
20260509052139 53 336 0.0 0.0 0.00 0.00 0.00 78 1017.9
20260509051637 53 336 0.0 0.0 0.00 0.00 0.00 78 1017.9
20260509051134 53 336 0.0 0.0 0.00 0.00 0.00 78 1017.8
20260509050631 53 335 0.0 0.0 0.00 0.00 0.00 78 1017.8
20260509050127 53 335 0.0 0.0 0.00 0.00 0.00 79 1017.8
20260509045625 53 335 0.0 0.0 0.00 0.00 0.00 79 1017.7
20260509045122 53 335 0.0 0.0 0.00 0.00 0.00 78 1017.6
20260509044619 53 335 0.0 0.0 0.00 0.00 0.00 78 1017.8
20260509044116 53 334 0.0 0.0 0.00 0.00 0.00 77 1017.7
20260509043613 53 333 0.0 0.0 0.00 0.00 0.00 77 1017.7
20260509043108 53 333 0.0 0.0 0.00 0.00 0.00 78 1017.7
20260509042605 53 333 0.0 0.0 0.00 0.00 0.00 78 1017.9
20260509042101 54 340 0.0 0.0 0.00 0.00 0.00 75 1017.6
20260509041558 54 340 0.0 0.0 0.00 0.00 0.00 74 1017.9
20260509041055 54 340 0.0 0.0 0.00 0.00 0.00 74 1018.0
20260509040554 54 340 0.0 0.0 0.00 0.00 0.00 75 1017.8
20260509040050 54 340 0.0 0.0 0.00 0.00 0.00 75 1017.9
20260509035547 54 340 0.0 0.0 0.00 0.00 0.00 74 1017.9
20260509035044 54 340 0.0 0.0 0.00 0.00 0.00 71 1018.0
20260509034542 54 340 0.0 0.0 0.00 0.00 0.00 71 1018.1
20260509034039 54 340 0.0 0.0 0.00 0.00 0.00 73 1018.1
20260509033536 55 340 0.0 0.0 0.00 0.00 0.00 73 1017.9
20260509033032 55 340 0.0 0.0 0.00 0.00 0.00 71 1018.2
20260509032530 55 344 0.0 0.0 0.00 0.00 0.00 70 1018.0
20260509032027 55 344 0.0 0.0 0.00 0.00 0.00 71 1018.0
20260509031524 55 330 1.7 1.7 0.00 0.00 0.00 71 1018.0
20260509031021 55 356 0.0 0.0 0.00 0.00 0.00 73 1018.0
20260509030520 55 353 0.0 0.0 0.00 0.00 0.00 73 1018.0
20260509030016 55 330 0.0 0.0 0.00 0.00 0.00 72 1018.1
20260509025512 55 333 0.0 0.0 0.00 0.00 0.00 71 1018.1
20260509025008 55 333 0.0 0.0 0.00 0.00 0.00 70 1017.9
20260509024503 55 332 0.0 0.0 0.00 0.00 0.00 69 1017.9
20260509024000 55 342 0.0 0.0 0.00 0.00 0.00 70 1017.7
20260509023457 55 343 0.0 0.0 0.00 0.00 0.00 70 1018.1
20260509022949 55 316 0.0 0.9 0.00 0.00 0.00 71 1018.1
20260509022446 56 305 0.0 0.0 0.00 0.00 0.00 70 1018.0
20260509021943 56 350 0.0 0.0 0.00 0.00 0.00 66 1018.3
20260509021440 55 348 0.0 0.0 0.00 0.00 0.00 67 1018.0
20260509020938 55 332 0.0 0.9 0.00 0.00 0.00 71 1018.2
20260509020436 55 333 0.0 0.0 0.00 0.00 0.00 72 1018.0
20260509015932 55 332 0.0 0.0 0.00 0.00 0.00 70 1017.8
20260509015431 55 334 0.0 0.0 0.00 0.00 0.00 69 1018.0
20260509014927 56 327 0.0 0.9 0.00 0.00 0.00 70 1018.0
20260509014424 56 341 0.0 0.0 0.00 0.00 0.00 67 1017.9
20260509013920 56 342 0.0 0.0 0.00 0.00 0.00 68 1018.1
20260509013417 55 341 0.0 0.0 0.00 0.00 0.00 69 1018.0
20260509012913 56 333 0.0 0.0 0.00 0.00 0.00 69 1017.9
20260509012410 56 336 0.0 0.0 0.00 0.00 0.00 67 1017.9
20260509011907 56 338 0.0 0.0 0.00 0.00 0.00 66 1017.7
20260509011404 56 340 0.0 0.0 0.00 0.00 0.00 64 1017.9
20260509010903 56 341 0.0 0.0 0.00 0.00 0.00 66 1017.8
20260509010400 56 344 0.0 0.0 0.00 0.00 0.00 66 1017.5
20260509005856 56 334 0.0 0.0 0.00 0.00 0.00 66 1017.7
20260509005354 56 334 0.0 0.0 0.00 0.00 0.00 66 1017.5
20260509004849 56 334 0.0 0.0 0.00 0.00 0.00 67 1017.6
20260509004346 56 334 0.0 0.0 0.00 0.00 0.00 66 1017.4
20260509003843 56 334 0.0 0.0 0.00 0.00 0.00 63 1017.5
20260509003341 57 334 0.0 0.0 0.00 0.00 0.00 62 1017.4
20260509002838 58 334 0.0 0.0 0.00 0.00 0.00 63 1017.4
20260509002336 58 333 0.0 0.0 0.00 0.00 0.00 58 1017.4
20260509001833 58 334 0.0 0.0 0.00 0.00 0.00 60 1017.7
20260509001329 59 331 0.0 0.9 0.00 0.00 0.00 59 1017.5
20260509000826 59 331 0.0 0.9 0.00 0.00 0.00 61 1017.4
20260509000325 60 331 0.0 0.9 0.00 0.00 0.00 61 1017.3
20260508235820 61 322 0.0 0.9 0.00 0.00 0.00 59 1017.4
20260508235317 60 336 0.0 0.0 0.00 0.00 0.00 54 1017.4
20260508234814 60 336 0.0 0.0 0.00 0.00 0.00 57 1017.4
20260508234310 60 335 0.0 0.0 0.00 0.00 0.00 58 1017.1
20260508233809 61 336 0.0 0.0 0.00 0.00 0.00 56 1017.2
20260508233308 61 331 0.9 0.9 0.00 0.00 0.00 55 1017.3
20260508232805 61 333 1.7 1.7 0.00 0.00 0.00 55 1017.4
20260508232301 61 345 0.9 0.9 0.00 0.00 0.00 53 1017.2
20260508231800 60 336 0.9 0.9 0.00 0.00 0.00 54 1017.3
20260508231255 60 338 0.9 0.9 0.00 0.00 0.00 54 1017.2
20260508230752 61 332 0.9 1.7 0.00 0.00 0.00 55 1017.2
20260508230248 62 332 0.9 0.9 0.00 0.00 0.00 52 1017.3
20260508225746 64 336 0.9 1.7 0.00 0.00 0.00 45 1017.3
20260508225242 64 332 0.9 0.9 0.00 0.00 0.00 41 1017.2
20260508224740 65 304 1.7 1.7 0.00 0.00 0.00 41 1017.3
20260508224238 66 331 0.0 0.9 0.00 0.00 0.00 44 1017.4
20260508223736 66 332 0.0 0.0 0.00 0.00 0.00 43 1017.1
20260508223232 68 317 1.7 1.7 0.00 0.00 0.00 42 1017.2
20260508222730 67 358 0.0 0.0 0.00 0.00 0.00 39 1017.2
20260508222227 68 314 0.9 0.9 0.00 0.00 0.00 41 1017.5
20260508221723 68 4 1.7 2.6 0.00 0.00 0.00 38 1017.7
20260508221220 68 308 0.9 0.9 0.00 0.00 0.00 38 1017.6
20260508220716 67 326 0.0 0.0 0.00 0.00 0.00 39 1017.8
20260508220213 65 325 0.0 0.0 0.00 0.00 0.00 41 1017.5
20260508215709 65 357 0.9 0.9 0.00 0.00 0.00 42 1017.9
20260508215205 65 279 1.7 1.7 0.00 0.00 0.00 41 1017.6
20260508214703 67 277 2.6 2.6 0.00 0.00 0.00 40 1017.8
20260508214200 67 352 0.0 0.9 0.00 0.00 0.00 41 1018.0
20260508213656 66 343 0.0 0.0 0.00 0.00 0.00 40 1017.7
20260508213153 65 313 2.6 2.6 0.00 0.00 0.00 41 1018.1
20260508212649 65 330 0.0 0.0 0.00 0.00 0.00 41 1018.0
20260508212146 65 287 0.9 0.9 0.00 0.00 0.00 42 1018.3
20260508211641 65 312 0.9 0.9 0.00 0.00 0.00 42 1018.3
20260508211138 65 22 0.9 0.9 0.00 0.00 0.00 41 1018.5
20260508210634 65 350 0.9 1.7 0.00 0.00 0.00 43 1018.5
20260508210132 65 328 1.7 1.7 0.00 0.00 0.00 40 1018.1
20260508205629 65 289 0.0 0.9 0.00 0.00 0.00 42 1018.2
20260508205125 65 324 1.7 1.7 0.00 0.00 0.00 41 1018.5
20260508204621 64 301 2.6 2.6 0.00 0.00 0.00 41 1018.3
20260508204118 64 295 2.6 2.6 0.00 0.00 0.00 41 1018.5
20260508203614 64 277 0.9 1.7 0.00 0.00 0.00 41 1018.4
20260508203110 65 304 0.9 1.7 0.00 0.00 0.00 41 1018.5
20260508202606 64 190 2.6 4.3 0.00 0.00 0.00 41 1018.6
20260508202104 64 34 0.9 0.9 0.00 0.00 0.00 42 1018.5
20260508201600 63 324 1.7 1.7 0.00 0.00 0.00 42 1018.6